User: anonymous   Login
Location: Caltech
(34.1382°N, 118.1253°W)
Time: 15:11:53
(UTC-08:00)
Language:

HO-68 - Orbit

View from above orbital plane
View from above orbital plane
View from above satellite
View from above satellite

Ground track
Ground track

The orbit data is extracted from the following two-line orbital elements,

1 36122U 09072B   14355.54153226 -.00000060  00000-0 -43517-4 0  2296
2 36122 100.2237 041.4833 0007824 167.6701 192.4610 13.16321799241083
Epoch (UTC): 21 December 2014 12:59:48
Eccentricity: 0.0007824
inclination: 100.2237°
perigee height: 1193 km
apogee height: 1205 km
right ascension of ascending node: 41.4833°
argument of perigee: 167.6701°
revolutions per day: 13.16321799
mean anomaly at epoch: 192.4610°
orbit number at epoch: 24108

The dashed part of the orbit path shows where the satellite is in the earth's shadow,  

DLR